sat.trackr.live / text

‹ back to catalog

STARLINK-3938

NORAD 52566 · 2022-051AK

PAYLOAD ACTIVE UNKNOWN

§ Identity

Operator
Country
US
Launch date
2022-05-13
Launch site
AFWTR
Launch vehicle
Mass (kg)
RCS (m²)

Purposes: comms

External: N2YO · Heavens-Above · Gunter

§ Orbital elements

Epoch: 2026-05-25T01:05:56.356224Z

Period
95.44 min
Inclination
53.2123°
Eccentricity
0.0000961
Mean motion
15.08828713 rev/d
Perigee alt
539.1 km
Apogee alt
540.4 km
Semi-major
6,917.9 km
B*
3.8151e-5
RAAN
151.3445°
Arg perigee
70.9630°
Mean anomaly
289.1466°
Rev number
22,290

§ Raw data

STARLINK-39381 52566U 22051AK  26145.04579116  .00000319  00000+0  38151-4 0  99992 52566  53.2123 151.3445 0000961  70.9630 289.1466 15.08828713222900

JSON: /api/v1/satellites/52566 · /tle

For live sub-satellite position, see the globe view (requires WebGL).

§ Visibility from observer

Set your observer location to see the next 7 days of passes ≥ 10°. The values pass through the URL so the page stays shareable.

No JS? Fill the form by hand. The geolocation button needs JavaScript.